This is the latest recevied weather packets stored in our database for station/object UA1CAS-13. If no packets are shown the sender has not sent any weather packets the latest 10 day(s).
| Time | Temp. | Humidity | Pressure | Rain* | Wind** | Luminosity | Snow |
|---|---|---|---|---|---|---|---|
| 1777714820 | 23.89° C | 35% | 1007 hPa | - | - | - | - |
| 1777713919 | 24.44° C | 33% | 1008 hPa | - | - | - | - |
| 1777713018 | 24.44° C | 36% | 1008 hPa | - | - | - | - |
| 1777712116 | 23.89° C | 38% | 1008 hPa | - | - | - | - |
| 1777711215 | 23.89° C | 39% | 1008 hPa | - | - | - | - |
| 1777710314 | 22.78° C | 42% | 1008 hPa | - | - | - | - |
| 1777709413 | 23.33° C | 42% | 1008 hPa | - | - | - | - |
| 1777708512 | 22.22° C | 44% | 1009 hPa | - | - | - | - |
| 1777707611 | 21.67° C | 44% | 1009 hPa | - | - | - | - |
| 1777706710 | 21.67° C | 45% | 1009 hPa | - | - | - | - |
| 1777705809 | 20° C | 47% | 1009 hPa | - | - | - | - |
| 1777704908 | 20.56° C | 48% | 1009 hPa | - | - | - | - |
| 1777704007 | 20° C | 50% | 1009 hPa | - | - | - | - |
| 1777703106 | 18.89° C | 50% | 1009 hPa | - | - | - | - |
| 1777702204 | 18.33° C | 52% | 1009 hPa | - | - | - | - |
| 1777701303 | 17.78° C | 55% | 1009 hPa | - | - | - | - |
| 1777700402 | 16.11° C | 58% | 1009 hPa | - | - | - | - |
| 1777699501 | 15.56° C | 59% | 1009 hPa | - | - | - | - |
| 1777698600 | 15° C | 62% | 1009 hPa | - | - | - | - |
| 1777697699 | 14.44° C | 67% | 1010 hPa | - | - | - | - |
| 1777696798 | 12.78° C | 70% | 1010 hPa | - | - | - | - |
| 1777695896 | 12.22° C | 71% | 1010 hPa | - | - | - | - |
| 1777694995 | 11.67° C | 74% | 1010 hPa | - | - | - | - |
| 1777694094 | 11.11° C | 76% | 1010 hPa | - | - | - | - |
| 1777693193 | 11.11° C | 77% | 1010 hPa | - | - | - | - |
* Rain since midnight (hover to see other rain measurements)
** Current wind speed in m/s (hover to see current wind gust speed)